Tracking 18624 objects as of 26-April-2017
HD Live streaming from Space Station
objects crossing your sky now

SECOR 3

Track SECOR 3 now!
10-day predictions
SECOR 3 is classified as:


NORAD ID: 1208
Int'l Code: 1965-016E
Perigee: 916.4 km
Apogee: 916.4 km
Inclination: 70.1 °
Period: 103.2 minutes
Semi major axis: 7287 km
RCS: 0.2205 m2 (medium)
Launch date: March 9, 1965
Source: United States (US)
Launch site: AIR FORCE WESTERN TEST RANGE (AFWTR)
Your satellite tracking list
Your tracking list is empty





NASA's NSSDC Master Catalog

Two Line Element Set (TLE):
1  1208U 65016E   17114.96829233 -.00000017 +00000-0 +25726-4 0  9990
2  1208 070.0780 094.0784 0019468 163.9832 258.6652 13.95536329653146
Source of the keplerian elements: AFSPC